Location: Bosler Junction
(41.5528°N, 105.6814°W)
Time: 18:15:39
(UTC+00:00)

X-37B - Visible Passes

Search period start: 24 January 2022 00:00
Search period end: 03 February 2022 00:00
Orbit: 334 x 337 km, 45.0° (Epoch: 11 January)

Date Brightness Start Highest point End Pass type
(mag) Time Alt. Az. Time Alt. Az. Time Alt. Az.
25 Jan 2.9 01:47:11 10° S 01:47:44 12° S 01:47:44 12° S visible
26 Jan 2.6 02:06:29 10° SW 02:07:37 20° SSW 02:07:37 20° SSW visible
27 Jan 2.5 00:52:38 10° S 00:54:21 15° SE 00:56:04 10° ESE visible
27 Jan 3.3 02:26:41 10° WSW 02:27:26 17° WSW 02:27:26 17° WSW visible
28 Jan 1.2 01:11:56 10° SW 01:14:34 36° SSE 01:15:56 21° E visible
29 Jan 0.2 01:32:07 10° WSW 01:34:56 87° SSE 01:35:38 47° ENE visible
30 Jan 0.9 01:52:39 10° W 01:55:16 49° NNW 01:55:16 49° NNW visible
31 Jan 2.4 02:13:19 10° WNW 02:14:53 25° NW 02:14:53 25° NW visible
01 Feb 0.8 00:58:05 10° W 01:00:52 51° NNW 01:03:15 13° ENE visible
01 Feb 3.5 02:33:55 10° WNW 02:34:29 14° WNW 02:34:29 14° WNW visible
02 Feb 1.2 01:18:45 10° WNW 01:21:27 38° N 01:22:51 22° NE visible
